| time (UTC) | temp F | wind direction | speed MPH | gust MPH | rain 1hr in | rain 24hr in | rain mn in | humidity % | barometer mb |
| 20260505140600 | 63 | 277 | 9.0 | 19.0 | 0.00 | 0.00 | 0.00 | 74 | 1006.2 |
| 20260505140550 | 63 | 252 | 3.0 | 8.0 | 0.00 | 0.00 | 0.00 | 74 | 1003.6 |
| 20260505140112 | 64 | 245 | 8.0 | 19.0 | 0.00 | 0.00 | 0.00 | 73 | 1006.1 |
| 20260505130107 | 63 | 223 | 9.0 | 17.0 | 0.00 | 0.00 | 0.00 | 73 | 1005.9 |
| 20260505125040 | 63 | 265 | 1.0 | 7.0 | 0.00 | 0.00 | 0.00 | 74 | 1003.4 |
| 20260505124558 | 62 | 258 | 8.0 | 16.0 | 0.00 | 0.00 | 0.00 | 74 | 1005.9 |
| 20260505124537 | 62 | 254 | 1.0 | 5.0 | 0.00 | 0.00 | 0.00 | 75 | 1003.5 |
| 20260505124059 | 62 | 191 | 7.0 | 18.0 | 0.00 | 0.00 | 0.00 | 75 | 1005.9 |
| 20260505124036 | 62 | 258 | 1.0 | 3.0 | 0.00 | 0.00 | 0.00 | 76 | 1003.5 |
| 20260505123601 | 61 | 267 | 5.0 | 18.0 | 0.00 | 0.00 | 0.00 | 76 | 1005.8 |
| 20260505123534 | 61 | 269 | 1.0 | 6.0 | 0.00 | 0.00 | 0.00 | 76 | 1003.4 |
| 20260505123059 | 61 | 216 | 6.0 | 17.0 | 0.00 | 0.00 | 0.00 | 75 | 1005.8 |
| 20260505123034 | 61 | 254 | 1.0 | 6.0 | 0.00 | 0.00 | 0.00 | 76 | 1003.4 |
| 20260505122559 | 61 | 234 | 7.0 | 17.0 | 0.00 | 0.00 | 0.00 | 75 | 1005.8 |
| 20260505122534 | 61 | 232 | 1.0 | 6.0 | 0.00 | 0.00 | 0.00 | 76 | 1003.4 |
| 20260505122059 | 61 | 231 | 9.0 | 23.0 | 0.00 | 0.00 | 0.00 | 75 | 1006.0 |
| 20260505122034 | 61 | 259 | 1.0 | 7.0 | 0.00 | 0.00 | 0.00 | 75 | 1003.5 |
| 20260505121630 | 61 | 233 | 9.0 | 23.0 | 0.00 | 0.00 | 0.00 | 75 | 1005.9 |
| 20260505121538 | 61 | 252 | 3.0 | 8.0 | 0.00 | 0.00 | 0.00 | 75 | 1003.3 |
| 20260505121058 | 61 | 243 | 7.0 | 17.0 | 0.00 | 0.00 | 0.00 | 75 | 1005.9 |
| 20260505121032 | 61 | 240 | 1.0 | 8.0 | 0.00 | 0.00 | 0.00 | 75 | 1003.6 |
| 20260505120600 | 61 | 253 | 5.0 | 14.0 | 0.00 | 0.00 | 0.00 | 75 | 1005.9 |
| 20260505120529 | 61 | 252 | 0.0 | 4.0 | 0.00 | 0.00 | 0.00 | 75 | 1003.4 |
| 20260505120100 | 61 | 205 | 7.0 | 14.0 | 0.00 | 0.00 | 0.00 | 75 | 1005.7 |
| 20260505120027 | 61 | 252 | 2.0 | 4.0 | 0.00 | 0.00 | 0.00 | 76 | 1003.2 |
| 20260505115600 | 61 | 237 | 4.0 | 14.0 | 0.00 | 0.00 | 0.00 | 75 | 1005.5 |
| 20260505115523 | 60 | 259 | 0.0 | 4.0 | 0.00 | 0.00 | 0.00 | 76 | 1003.0 |
| 20260505115100 | 60 | 218 | 6.0 | 14.0 | 0.00 | 0.00 | 0.00 | 76 | 1005.4 |
| 20260505115022 | 60 | 259 | 0.0 | 3.0 | 0.00 | 0.00 | 0.00 | 77 | 1003.0 |
| 20260505114602 | 60 | 226 | 5.0 | 13.0 | 0.00 | 0.00 | 0.00 | 76 | 1005.4 |
| 20260505114521 | 60 | 260 | 0.0 | 3.0 | 0.00 | 0.00 | 0.00 | 77 | 1002.9 |
| 20260505114059 | 60 | 227 | 4.0 | 13.0 | 0.00 | 0.00 | 0.00 | 76 | 1005.2 |
| 20260505114020 | 60 | 261 | 0.0 | 3.0 | 0.00 | 0.00 | 0.00 | 77 | 1002.6 |
| 20260505113559 | 60 | 229 | 5.0 | 14.0 | 0.00 | 0.00 | 0.00 | 76 | 1005.1 |
| 20260505113100 | 60 | 230 | 0.0 | 1.0 | 0.00 | 0.00 | 0.00 | 77 | 1002.4 |
| 20260505113058 | 60 | 213 | 6.0 | 14.0 | 0.00 | 0.00 | 0.00 | 76 | 1004.9 |
| 20260505112559 | 60 | 230 | 7.0 | 13.0 | 0.00 | 0.00 | 0.00 | 76 | 1004.8 |
| 20260505112550 | 60 | 230 | 0.0 | 1.0 | 0.00 | 0.00 | 0.00 | 77 | 1002.4 |
| 20260505112059 | 60 | 246 | 4.0 | 11.0 | 0.00 | 0.00 | 0.00 | 76 | 1004.8 |
| 20260505112049 | 60 | 227 | 0.0 | 1.0 | 0.00 | 0.00 | 0.00 | 77 | 1002.3 |
| 20260505111600 | 61 | 219 | 5.0 | 12.0 | 0.00 | 0.00 | 0.00 | 75 | 1004.6 |
| 20260505111549 | 61 | 227 | 0.0 | 1.0 | 0.00 | 0.00 | 0.00 | 76 | 1002.1 |
| 20260505111058 | 61 | 215 | 5.0 | 14.0 | 0.00 | 0.00 | 0.00 | 75 | 1004.6 |
| 20260505111047 | 61 | 227 | 0.0 | 1.0 | 0.00 | 0.00 | 0.00 | 76 | 1002.0 |
| 20260505110558 | 61 | 234 | 5.0 | 14.0 | 0.00 | 0.00 | 0.00 | 75 | 1004.5 |
| 20260505110546 | 61 | 227 | 0.0 | 2.0 | 0.00 | 0.00 | 0.00 | 76 | 1001.8 |
| 20260505102058 | 61 | 212 | 7.0 | 16.0 | 0.00 | 0.00 | 0.00 | 74 | 1003.9 |
| 20260505102039 | 61 | 213 | 0.0 | 4.0 | 0.00 | 0.00 | 0.00 | 75 | 1001.4 |
| 20260505101600 | 61 | 203 | 8.0 | 18.0 | 0.00 | 0.00 | 0.00 | 74 | 1003.8 |
| 20260505101538 | 61 | 233 | 1.0 | 5.0 | 0.00 | 0.00 | 0.00 | 74 | 1001.3 |
| 20260505101100 | 62 | 192 | 9.0 | 18.0 | 0.00 | 0.00 | 0.00 | 73 | 1003.8 |
| 20260505101038 | 62 | 219 | 0.0 | 5.0 | 0.00 | 0.00 | 0.00 | 73 | 1001.4 |
| 20260505100558 | 62 | 224 | 9.0 | 19.0 | 0.00 | 0.00 | 0.00 | 72 | 1003.8 |
| 20260505100536 | 62 | 223 | 1.0 | 5.0 | 0.00 | 0.00 | 0.00 | 72 | 1001.3 |
| 20260505100037 | 62 | 228 | 1.0 | 4.0 | 0.00 | 0.00 | 0.00 | 71 | 1001.3 |
| 20260505095558 | 63 | 207 | 8.0 | 19.0 | 0.00 | 0.00 | 0.00 | 70 | 1003.7 |
| 20260505095535 | 63 | 227 | 0.0 | 4.0 | 0.00 | 0.00 | 0.00 | 70 | 1001.2 |
| 20260505095101 | 62 | 215 | 8.0 | 14.0 | 0.00 | 0.00 | 0.00 | 70 | 1003.7 |
| 20260505095035 | 62 | 240 | 1.0 | 4.0 | 0.00 | 0.00 | 0.00 | 71 | 1001.3 |
| 20260505094558 | 62 | 225 | 6.0 | 14.0 | 0.00 | 0.00 | 0.00 | 71 | 1003.7 |
| 20260505094535 | 62 | 224 | 0.0 | 2.0 | 0.00 | 0.00 | 0.00 | 72 | 1001.2 |
| 20260505094100 | 62 | 218 | 4.0 | 14.0 | 0.00 | 0.00 | 0.00 | 72 | 1003.6 |
| 20260505094035 | 62 | 215 | 0.0 | 2.0 | 0.00 | 0.00 | 0.00 | 73 | 1001.1 |
| 20260505093600 | 62 | 244 | 5.0 | 13.0 | 0.00 | 0.00 | 0.00 | 73 | 1003.5 |
| 20260505093535 | 62 | 200 | 0.0 | 3.0 | 0.00 | 0.00 | 0.00 | 73 | 1001.0 |
| 20260505093101 | 62 | 232 | 5.0 | 16.0 | 0.00 | 0.00 | 0.00 | 73 | 1003.5 |
| 20260505093045 | 62 | 223 | 0.0 | 3.0 | 0.00 | 0.00 | 0.00 | 73 | 1000.8 |
| 20260505092603 | 62 | 191 | 9.0 | 16.0 | 0.00 | 0.00 | 0.00 | 72 | 1003.4 |
| 20260505092534 | 62 | 237 | 0.0 | 3.0 | 0.00 | 0.00 | 0.00 | 73 | 1000.8 |
| 20260505092100 | 62 | 207 | 5.0 | 13.0 | 0.00 | 0.00 | 0.00 | 73 | 1003.3 |
| 20260505092033 | 62 | 226 | 0.0 | 3.0 | 0.00 | 0.00 | 0.00 | 73 | 1000.7 |
| 20260505091600 | 63 | 221 | 6.0 | 20.0 | 0.00 | 0.00 | 0.00 | 72 | 1003.2 |
| 20260505091532 | 63 | 238 | 0.0 | 3.0 | 0.00 | 0.00 | 0.00 | 73 | 1000.7 |
| 20260505091059 | 63 | 225 | 7.0 | 20.0 | 0.00 | 0.00 | 0.00 | 72 | 1003.2 |
| 20260505091032 | 63 | 249 | 0.0 | 3.0 | 0.00 | 0.00 | 0.00 | 73 | 1000.6 |
| 20260505090600 | 63 | 209 | 8.0 | 20.0 | 0.00 | 0.00 | 0.00 | 72 | 1003.1 |
| 20260505090531 | 63 | 155 | 1.0 | 6.0 | 0.00 | 0.00 | 0.00 | 73 | 1000.5 |
| 20260505090107 | 63 | 226 | 9.0 | 21.0 | 0.00 | 0.00 | 0.00 | 72 | 1003.0 |
| 20260505090033 | 63 | 213 | 2.0 | 6.0 | 0.00 | 0.00 | 0.00 | 73 | 1000.6 |
| 20260505085559 | 63 | 198 | 7.0 | 21.0 | 0.00 | 0.00 | 0.00 | 72 | 1003.3 |
| 20260505085535 | 63 | 221 | 0.0 | 4.0 | 0.00 | 0.00 | 0.00 | 73 | 1000.7 |
| 20260505085100 | 63 | 240 | 8.0 | 20.0 | 0.00 | 0.00 | 0.00 | 71 | 1003.4 |
| 20260505085030 | 63 | 228 | 1.0 | 6.0 | 0.00 | 0.00 | 0.00 | 72 | 1000.8 |
| 20260505084559 | 64 | 232 | 9.0 | 23.0 | 0.00 | 0.00 | 0.00 | 71 | 1003.1 |
| 20260505084531 | 64 | 215 | 2.0 | 5.0 | 0.00 | 0.00 | 0.00 | 71 | 1000.5 |
| 20260505084059 | 64 | 231 | 9.0 | 23.0 | 0.00 | 0.00 | 0.00 | 70 | 1003.0 |
| 20260505084028 | 64 | 198 | 2.0 | 5.0 | 0.00 | 0.00 | 0.00 | 71 | 1000.5 |
| 20260505083557 | 64 | 223 | 7.0 | 15.0 | 0.00 | 0.00 | 0.00 | 70 | 1002.8 |
| 20260505083531 | 64 | 244 | 1.0 | 6.0 | 0.00 | 0.00 | 0.00 | 70 | 1000.4 |
| 20260505083105 | 64 | 204 | 6.0 | 16.0 | 0.00 | 0.00 | 0.00 | 70 | 1002.9 |
| 20260505083031 | 64 | 184 | 0.0 | 4.0 | 0.00 | 0.00 | 0.00 | 71 | 1000.5 |
| 20260505082557 | 64 | 240 | 8.0 | 17.0 | 0.00 | 0.00 | 0.00 | 70 | 1002.7 |
| 20260505082527 | 64 | 224 | 0.0 | 4.0 | 0.00 | 0.00 | 0.00 | 70 | 1000.3 |
| 20260505082100 | 64 | 233 | 8.0 | 17.0 | 0.00 | 0.00 | 0.00 | 70 | 1002.7 |
| 20260505082027 | 64 | 211 | 0.0 | 5.0 | 0.00 | 0.00 | 0.00 | 70 | 1000.3 |
| 20260505081603 | 64 | 219 | 7.0 | 15.0 | 0.00 | 0.00 | 0.00 | 70 | 1002.8 |
| 20260505081529 | 64 | 220 | 1.0 | 4.0 | 0.00 | 0.00 | 0.00 | 71 | 1000.3 |
| 20260505081058 | 64 | 200 | 7.0 | 15.0 | 0.00 | 0.00 | 0.00 | 71 | 1002.7 |
| 20260505081027 | 64 | 219 | 0.0 | 4.0 | 0.00 | 0.00 | 0.00 | 71 | 1000.3 |
| 20260505080603 | 64 | 265 | 6.0 | 15.0 | 0.00 | 0.00 | 0.00 | 71 | 1002.8 |
| 20260505080526 | 64 | 205 | 0.0 | 3.0 | 0.00 | 0.00 | 0.00 | 72 | 1000.3 |
| 20260505080100 | 64 | 209 | 7.0 | 15.0 | 0.00 | 0.00 | 0.00 | 71 | 1002.7 |
| 20260505080031 | 64 | 212 | 0.0 | 3.0 | 0.00 | 0.00 | 0.00 | 72 | 1000.2 |
| 20260505075602 | 64 | 209 | 6.0 | 15.0 | 0.00 | 0.00 | 0.00 | 72 | 1002.5 |
| 20260505075525 | 64 | 178 | 0.0 | 3.0 | 0.00 | 0.00 | 0.00 | 72 | 1000.0 |
| 20260505075058 | 64 | 241 | 7.0 | 13.0 | 0.00 | 0.00 | 0.00 | 72 | 1002.4 |
| 20260505075025 | 64 | 200 | 0.0 | 1.0 | 0.00 | 0.00 | 0.00 | 72 | 1000.0 |
| 20260505074600 | 64 | 207 | 6.0 | 14.0 | 0.00 | 0.00 | 0.00 | 72 | 1002.4 |
| 20260505074526 | 64 | 209 | 0.0 | 2.0 | 0.00 | 0.00 | 0.00 | 72 | 999.9 |
| 20260505074059 | 64 | 200 | 7.0 | 14.0 | 0.00 | 0.00 | 0.00 | 72 | 1002.3 |
| 20260505074025 | 64 | 198 | 0.0 | 2.0 | 0.00 | 0.00 | 0.00 | 72 | 999.9 |
| 20260505073557 | 64 | 207 | 6.0 | 11.0 | 0.00 | 0.00 | 0.00 | 72 | 1002.4 |
| 20260505073524 | 64 | 194 | 0.0 | 0.0 | 0.00 | 0.00 | 0.00 | 72 | 1000.0 |
| 20260505073103 | 64 | 219 | 6.0 | 11.0 | 0.00 | 0.00 | 0.00 | 71 | 1002.4 |
| 20260505073023 | 64 | 188 | 0.0 | 0.0 | 0.00 | 0.00 | 0.00 | 72 | 1000.0 |
| 20260505072603 | 64 | 208 | 5.0 | 10.0 | 0.00 | 0.00 | 0.00 | 71 | 1002.4 |
| 20260505072521 | 64 | 200 | 0.0 | 0.0 | 0.00 | 0.00 | 0.00 | 71 | 1000.0 |
| 20260505072100 | 64 | 211 | 4.0 | 10.0 | 0.00 | 0.00 | 0.00 | 71 | 1002.4 |
| 20260505072021 | 64 | 235 | 0.0 | 0.0 | 0.00 | 0.00 | 0.00 | 71 | 1000.1 |
| 20260505071607 | 64 | 219 | 4.0 | 9.0 | 0.00 | 0.00 | 0.00 | 70 | 1002.3 |
| 20260505071521 | 64 | 266 | 0.0 | 0.0 | 0.00 | 0.00 | 0.00 | 71 | 999.9 |
| 20260505071058 | 65 | 246 | 4.0 | 10.0 | 0.00 | 0.00 | 0.00 | 70 | 1002.4 |
| 20260505071022 | 65 | 273 | 0.0 | 0.0 | 0.00 | 0.00 | 0.00 | 71 | 1000.0 |
| 20260505070600 | 65 | 236 | 4.0 | 10.0 | 0.00 | 0.00 | 0.00 | 71 | 1002.5 |
| 20260505070521 | 64 | 273 | 0.0 | 0.0 | 0.00 | 0.00 | 0.00 | 71 | 1000.2 |
| 20260505070100 | 64 | 234 | 3.0 | 8.0 | 0.00 | 0.00 | 0.00 | 71 | 1002.6 |
| 20260505070024 | 64 | 286 | 0.0 | 0.0 | 0.00 | 0.00 | 0.00 | 72 | 1000.3 |
| 20260505065600 | 64 | 230 | 3.0 | 8.0 | 0.00 | 0.00 | 0.00 | 71 | 1002.8 |
| 20260505065519 | 64 | 286 | 0.0 | 0.0 | 0.00 | 0.00 | 0.00 | 72 | 1000.4 |
| 20260505065059 | 64 | 211 | 3.0 | 11.0 | 0.00 | 0.00 | 0.00 | 71 | 1002.8 |
| 20260505065019 | 64 | 286 | 0.0 | 0.0 | 0.00 | 0.00 | 0.00 | 72 | 1000.5 |
| 20260505064603 | 64 | 221 | 4.0 | 11.0 | 0.00 | 0.00 | 0.00 | 71 | 1002.8 |
| 20260505064519 | 64 | 286 | 0.0 | 0.0 | 0.00 | 0.00 | 0.00 | 72 | 1000.5 |
| 20260505064100 | 64 | 194 | 4.0 | 9.0 | 0.00 | 0.00 | 0.00 | 71 | 1002.9 |
| 20260505064019 | 64 | 286 | 0.0 | 0.0 | 0.00 | 0.00 | 0.00 | 72 | 1000.5 |
| 20260505063619 | 64 | 234 | 3.0 | 8.0 | 0.00 | 0.00 | 0.00 | 71 | 1002.9 |
| 20260505063518 | 64 | 291 | 0.0 | 0.0 | 0.00 | 0.00 | 0.00 | 71 | 1000.6 |
| 20260505063100 | 65 | 231 | 3.0 | 8.0 | 0.00 | 0.00 | 0.00 | 70 | 1003.0 |
| 20260505063018 | 65 | 291 | 0.0 | 0.0 | 0.00 | 0.00 | 0.00 | 71 | 1000.6 |
| 20260505062600 | 65 | 266 | 3.0 | 8.0 | 0.00 | 0.00 | 0.00 | 70 | 1003.2 |
| 20260505062517 | 65 | 291 | 0.0 | 0.0 | 0.00 | 0.00 | 0.00 | 71 | 1000.7 |
| 20260505062059 | 65 | 244 | 2.0 | 4.0 | 0.00 | 0.00 | 0.00 | 70 | 1003.4 |
| 20260505062017 | 65 | 291 | 0.0 | 0.0 | 0.00 | 0.00 | 0.00 | 71 | 1000.9 |
| 20260505061602 | 66 | 263 | 1.0 | 4.0 | 0.00 | 0.00 | 0.00 | 69 | 1003.5 |
| 20260505061515 | 66 | 291 | 0.0 | 1.0 | 0.00 | 0.00 | 0.00 | 69 | 1001.1 |
| 20260505061059 | 67 | 309 | 1.0 | 9.0 | 0.00 | 0.00 | 0.00 | 68 | 1003.5 |
| 20260505061013 | 67 | 291 | 0.0 | 1.0 | 0.00 | 0.00 | 0.00 | 68 | 1001.1 |
| 20260505060557 | 67 | 250 | 2.0 | 9.0 | 0.00 | 0.00 | 0.00 | 67 | 1003.4 |
| 20260505060512 | 67 | 294 | 0.0 | 1.0 | 0.00 | 0.00 | 0.00 | 67 | 1001.1 |
| 20260505060013 | 67 | 293 | 0.0 | 4.0 | 0.00 | 0.00 | 0.00 | 66 | 1000.8 |
| 20260505055557 | 68 | 273 | 2.0 | 11.0 | 0.00 | 0.00 | 0.00 | 65 | 1003.4 |
| 20260505055511 | 68 | 293 | 1.0 | 4.0 | 0.00 | 0.00 | 0.00 | 65 | 1000.9 |
| 20260505055058 | 68 | 279 | 3.0 | 15.0 | 0.00 | 0.00 | 0.00 | 64 | 1003.4 |
| 20260505055011 | 68 | 298 | 1.0 | 15.0 | 0.00 | 0.00 | 0.00 | 65 | 1001.1 |
| 20260505054600 | 68 | 263 | 4.0 | 18.0 | 0.00 | 0.00 | 0.00 | 64 | 1003.4 |
| 20260505054511 | 68 | 279 | 2.0 | 15.0 | 0.00 | 0.00 | 0.00 | 65 | 1001.1 |
| 20260505054058 | 68 | 270 | 8.0 | 18.0 | 0.00 | 0.00 | 0.00 | 64 | 1003.5 |
| 20260505054010 | 68 | 263 | 1.0 | 4.0 | 0.00 | 0.00 | 0.00 | 65 | 1000.8 |
| 20260505053557 | 68 | 211 | 9.0 | 18.0 | 0.00 | 0.00 | 0.00 | 64 | 1002.6 |
| 20260505053511 | 68 | 220 | 1.0 | 4.0 | 0.00 | 0.00 | 0.00 | 65 | 1000.1 |
| 20260505053108 | 68 | 194 | 6.0 | 18.0 | 0.00 | 0.00 | 0.00 | 64 | 1002.5 |
| 20260505053014 | 68 | 192 | 0.0 | 4.0 | 0.00 | 0.00 | 0.00 | 65 | 1000.0 |
| 20260505052602 | 68 | 198 | 10.0 | 17.0 | 0.00 | 0.00 | 0.00 | 64 | 1002.4 |
| 20260505052509 | 68 | 207 | 0.0 | 4.0 | 0.00 | 0.00 | 0.00 | 65 | 1000.0 |
| 20260505052100 | 68 | 202 | 10.0 | 20.0 | 0.00 | 0.00 | 0.00 | 64 | 1002.3 |
| 20260505052009 | 68 | 199 | 0.0 | 4.0 | 0.00 | 0.00 | 0.00 | 65 | 999.9 |
| 20260505051559 | 68 | 205 | 10.0 | 20.0 | 0.00 | 0.00 | 0.00 | 65 | 1002.3 |
| 20260505051509 | 68 | 202 | 1.0 | 4.0 | 0.00 | 0.00 | 0.00 | 65 | 1000.0 |
| 20260505051102 | 68 | 211 | 11.0 | 19.0 | 0.00 | 0.00 | 0.00 | 65 | 1002.4 |
| 20260505051009 | 68 | 208 | 1.0 | 4.0 | 0.00 | 0.00 | 0.00 | 65 | 1000.0 |
| 20260505050557 | 68 | 209 | 10.0 | 20.0 | 0.00 | 0.00 | 0.00 | 64 | 1002.3 |
| 20260505050511 | 68 | 203 | 1.0 | 4.0 | 0.00 | 0.00 | 0.00 | 65 | 1000.0 |
| 20260505041604 | 68 | 213 | 2.0 | 5.0 | 0.00 | 0.00 | 0.00 | 65 | 1000.4 |
| 20260505041602 | 68 | 199 | 10.0 | 21.0 | 0.00 | 0.00 | 0.00 | 65 | 1002.7 |
| 20260505041058 | 68 | 200 | 9.0 | 16.0 | 0.00 | 0.00 | 0.00 | 65 | 1002.8 |
| 20260505041056 | 68 | 209 | 1.0 | 6.0 | 0.00 | 0.00 | 0.00 | 66 | 1000.5 |
| 20260505040604 | 68 | 161 | 8.0 | 18.0 | 0.00 | 0.00 | 0.00 | 66 | 1002.7 |
| 20260505040556 | 68 | 163 | 1.0 | 6.0 | 0.00 | 0.00 | 0.00 | 66 | 1000.4 |
| 20260505035600 | 67 | 190 | 8.0 | 18.0 | 0.00 | 0.00 | 0.00 | 66 | 1002.8 |
| 20260505035555 | 67 | 220 | 1.0 | 4.0 | 0.00 | 0.00 | 0.00 | 66 | 1000.5 |
| 20260505035057 | 67 | 189 | 8.0 | 18.0 | 0.00 | 0.00 | 0.00 | 66 | 1002.8 |
| 20260505034601 | 67 | 197 | 9.0 | 16.0 | 0.00 | 0.00 | 0.00 | 65 | 1003.0 |
| 20260505034556 | 67 | 216 | 1.0 | 6.0 | 0.00 | 0.00 | 0.00 | 66 | 1000.6 |
| 20260505034100 | 67 | 203 | 8.0 | 16.0 | 0.00 | 0.00 | 0.00 | 65 | 1003.0 |
| 20260505034054 | 67 | 199 | 1.0 | 4.0 | 0.00 | 0.00 | 0.00 | 65 | 1000.6 |
| 20260505033558 | 67 | 211 | 7.0 | 15.0 | 0.00 | 0.00 | 0.00 | 65 | 1003.0 |
| 20260505033554 | 67 | 209 | 0.0 | 5.0 | 0.00 | 0.00 | 0.00 | 65 | 1000.7 |
| 20260505033114 | 68 | 195 | 8.0 | 17.0 | 0.00 | 0.00 | 0.00 | 65 | 1003.2 |
| 20260505033101 | 68 | 186 | 1.0 | 5.0 | 0.00 | 0.00 | 0.00 | 65 | 1000.8 |
| 20260505032558 | 68 | 194 | 9.0 | 17.0 | 0.00 | 0.00 | 0.00 | 64 | 1003.2 |
| 20260505032554 | 68 | 152 | 1.0 | 5.0 | 0.00 | 0.00 | 0.00 | 65 | 1000.9 |
| 20260505032101 | 68 | 195 | 7.0 | 13.0 | 0.00 | 0.00 | 0.00 | 65 | 1003.3 |
| 20260505032056 | 68 | 192 | 0.0 | 3.0 | 0.00 | 0.00 | 0.00 | 65 | 1000.9 |
| 20260505031600 | 68 | 206 | 6.0 | 12.0 | 0.00 | 0.00 | 0.00 | 64 | 1003.2 |
| 20260505031556 | 68 | 210 | 0.0 | 3.0 | 0.00 | 0.00 | 0.00 | 64 | 1000.9 |
| 20260505031102 | 68 | 219 | 7.0 | 12.0 | 0.00 | 0.00 | 0.00 | 64 | 1003.3 |
| 20260505031052 | 68 | 194 | 0.0 | 6.0 | 0.00 | 0.00 | 0.00 | 64 | 1001.0 |
| 20260505030601 | 68 | 182 | 7.0 | 12.0 | 0.00 | 0.00 | 0.00 | 63 | 1003.4 |
| 20260505030558 | 68 | 209 | 0.0 | 6.0 | 0.00 | 0.00 | 0.00 | 63 | 1001.1 |
| 20260505030054 | 68 | 198 | 0.0 | 6.0 | 0.00 | 0.00 | 0.00 | 64 | 1001.1 |
| 20260505025559 | 68 | 180 | 9.0 | 15.0 | 0.00 | 0.00 | 0.00 | 63 | 1003.3 |
| 20260505025551 | 68 | 182 | 0.0 | 3.0 | 0.00 | 0.00 | 0.00 | 63 | 1001.2 |
| 20260505025059 | 68 | 171 | 7.0 | 18.0 | 0.00 | 0.00 | 0.00 | 63 | 1003.5 |
| 20260505025051 | 68 | 194 | 0.0 | 3.0 | 0.00 | 0.00 | 0.00 | 63 | 1001.2 |
| 20260505024613 | 68 | 193 | 9.0 | 20.0 | 0.00 | 0.00 | 0.00 | 62 | 1003.4 |
| 20260505024553 | 68 | 196 | 0.0 | 3.0 | 0.00 | 0.00 | 0.00 | 63 | 1001.1 |
| 20260505024100 | 68 | 180 | 9.0 | 20.0 | 0.00 | 0.00 | 0.00 | 62 | 1003.4 |
| 20260505024051 | 68 | 188 | 0.0 | 6.0 | 0.00 | 0.00 | 0.00 | 62 | 1001.1 |
| 20260505023602 | 69 | 180 | 10.0 | 17.0 | 0.00 | 0.00 | 0.00 | 61 | 1003.3 |
| 20260505023551 | 69 | 232 | 1.0 | 6.0 | 0.00 | 0.00 | 0.00 | 62 | 1001.1 |
| 20260505023108 | 69 | 187 | 9.0 | 20.0 | 0.00 | 0.00 | 0.00 | 61 | 1003.3 |
| 20260505023051 | 69 | 216 | 0.0 | 5.0 | 0.00 | 0.00 | 0.00 | 61 | 1001.1 |
| 20260505022600 | 69 | 217 | 10.0 | 21.0 | 0.00 | 0.00 | 0.00 | 60 | 1003.4 |
| 20260505022551 | 69 | 187 | 0.0 | 6.0 | 0.00 | 0.00 | 0.00 | 61 | 1001.1 |
| 20260505022104 | 69 | 202 | 10.0 | 21.0 | 0.00 | 0.00 | 0.00 | 60 | 1003.4 |
| 20260505022055 | 69 | 227 | 1.0 | 6.0 | 0.00 | 0.00 | 0.00 | 60 | 1001.0 |
| 20260505021559 | 69 | 204 | 10.0 | 21.0 | 0.00 | 0.00 | 0.00 | 59 | 1003.3 |
| 20260505021551 | 69 | 225 | 1.0 | 6.0 | 0.00 | 0.00 | 0.00 | 60 | 1001.1 |
| 20260505021059 | 69 | 190 | 11.0 | 21.0 | 0.00 | 0.00 | 0.00 | 59 | 1003.3 |
| 20260505021050 | 70 | 196 | 1.0 | 5.0 | 0.00 | 0.00 | 0.00 | 59 | 1001.1 |
| 20260505020559 | 70 | 198 | 10.0 | 21.0 | 0.00 | 0.00 | 0.00 | 58 | 1003.3 |
| 20260505020550 | 70 | 209 | 1.0 | 6.0 | 0.00 | 0.00 | 0.00 | 58 | 1001.1 |
| 20260505020050 | 70 | 214 | 2.0 | 6.0 | 0.00 | 0.00 | 0.00 | 57 | 1001.1 |
| 20260505015559 | 70 | 190 | 9.0 | 17.0 | 0.00 | 0.00 | 0.00 | 56 | 1003.3 |
| 20260505015550 | 70 | 171 | 0.0 | 5.0 | 0.00 | 0.00 | 0.00 | 56 | 1001.0 |
| 20260505015059 | 71 | 195 | 10.0 | 17.0 | 0.00 | 0.00 | 0.00 | 55 | 1003.3 |
| 20260505015050 | 71 | 206 | 1.0 | 6.0 | 0.00 | 0.00 | 0.00 | 56 | 1001.0 |
| 20260505014604 | 71 | 212 | 8.0 | 16.0 | 0.00 | 0.00 | 0.00 | 55 | 1003.3 |
| 20260505014550 | 71 | 213 | 0.0 | 4.0 | 0.00 | 0.00 | 0.00 | 55 | 1001.0 |
| 20260505014059 | 71 | 209 | 7.0 | 18.0 | 0.00 | 0.00 | 0.00 | 55 | 1003.3 |
| 20260505014049 | 71 | 213 | 0.0 | 3.0 | 0.00 | 0.00 | 0.00 | 55 | 1001.1 |
| 20260505013559 | 71 | 232 | 8.0 | 18.0 | 0.00 | 0.00 | 0.00 | 54 | 1003.4 |
| 20260505013549 | 71 | 217 | 0.0 | 5.0 | 0.00 | 0.00 | 0.00 | 55 | 1001.0 |
| 20260505013110 | 71 | 234 | 7.0 | 16.0 | 0.00 | 0.00 | 0.00 | 54 | 1003.2 |
| 20260505013049 | 71 | 200 | 0.0 | 3.0 | 0.00 | 0.00 | 0.00 | 55 | 1000.9 |
| 20260505012600 | 71 | 185 | 7.0 | 16.0 | 0.00 | 0.00 | 0.00 | 54 | 1003.1 |
| 20260505012551 | 71 | 197 | 0.0 | 3.0 | 0.00 | 0.00 | 0.00 | 55 | 1000.9 |
| 20260505012100 | 71 | 211 | 6.0 | 14.0 | 0.00 | 0.00 | 0.00 | 54 | 1002.9 |
| 20260505012049 | 71 | 211 | 0.0 | 2.0 | 0.00 | 0.00 | 0.00 | 54 | 1000.7 |
| 20260505011602 | 71 | 196 | 7.0 | 14.0 | 0.00 | 0.00 | 0.00 | 53 | 1002.9 |
| 20260505011549 | 71 | 202 | 0.0 | 3.0 | 0.00 | 0.00 | 0.00 | 54 | 1000.6 |
| 20260505011100 | 71 | 242 | 6.0 | 13.0 | 0.00 | 0.00 | 0.00 | 53 | 1002.7 |
| 20260505011049 | 71 | 190 | 0.0 | 3.0 | 0.00 | 0.00 | 0.00 | 54 | 1000.5 |
| 20260505010600 | 71 | 219 | 5.0 | 17.0 | 0.00 | 0.00 | 0.00 | 53 | 1002.7 |
| 20260505010548 | 71 | 188 | 0.0 | 2.0 | 0.00 | 0.00 | 0.00 | 53 | 1000.5 |
| 20260505010058 | 72 | 229 | 0.0 | 2.0 | 0.00 | 0.00 | 0.00 | 52 | 1000.4 |
| 20260505005600 | 72 | 210 | 7.0 | 21.0 | 0.00 | 0.00 | 0.00 | 52 | 1002.6 |
| 20260505005548 | 72 | 204 | 0.0 | 3.0 | 0.00 | 0.00 | 0.00 | 52 | 1000.4 |
| 20260505005100 | 72 | 207 | 8.0 | 21.0 | 0.00 | 0.00 | 0.00 | 51 | 1002.6 |
| 20260505005048 | 72 | 218 | 0.0 | 3.0 | 0.00 | 0.00 | 0.00 | 52 | 1000.3 |
| 20260505004601 | 72 | 199 | 10.0 | 24.0 | 0.00 | 0.00 | 0.00 | 52 | 1002.5 |
| 20260505004548 | 72 | 211 | 0.0 | 3.0 | 0.00 | 0.00 | 0.00 | 52 | 1000.3 |
| 20260505004102 | 72 | 229 | 7.0 | 24.0 | 0.00 | 0.00 | 0.00 | 52 | 1002.5 |
| 20260505004048 | 72 | 239 | 0.0 | 3.0 | 0.00 | 0.00 | 0.00 | 52 | 1000.3 |
| 20260505003559 | 73 | 239 | 10.0 | 24.0 | 0.00 | 0.00 | 0.00 | 51 | 1002.4 |
| 20260505003550 | 73 | 205 | 1.0 | 3.0 | 0.00 | 0.00 | 0.00 | 51 | 1000.2 |
| 20260505003104 | 73 | 206 | 10.0 | 21.0 | 0.00 | 0.00 | 0.00 | 51 | 1002.3 |
| 20260505003046 | 73 | 246 | 0.0 | 4.0 | 0.00 | 0.00 | 0.00 | 51 | 1000.2 |
| 20260505002559 | 73 | 236 | 11.0 | 21.0 | 0.00 | 0.00 | 0.00 | 51 | 1002.3 |
| 20260505002546 | 73 | 250 | 1.0 | 4.0 | 0.00 | 0.00 | 0.00 | 51 | 1000.1 |
| 20260505002059 | 73 | 200 | 7.0 | 21.0 | 0.00 | 0.00 | 0.00 | 51 | 1002.4 |
| 20260505002047 | 73 | 219 | 0.0 | 14.0 | 0.00 | 0.00 | 0.00 | 51 | 1000.1 |
| 20260505001558 | 73 | 247 | 11.0 | 24.0 | 0.00 | 0.00 | 0.00 | 51 | 1002.2 |
| 20260505001547 | 73 | 277 | 2.0 | 14.0 | 0.00 | 0.00 | 0.00 | 51 | 1000.0 |
| 20260505001103 | 73 | 234 | 11.0 | 31.0 | 0.00 | 0.00 | 0.00 | 50 | 1002.2 |
| 20260505001046 | 73 | 196 | 1.0 | 9.0 | 0.00 | 0.00 | 0.00 | 51 | 1000.0 |
| 20260505000601 | 73 | 211 | 14.0 | 32.0 | 0.00 | 0.00 | 0.00 | 50 | 1002.2 |
| 20260505000546 | 73 | 230 | 3.0 | 9.0 | 0.00 | 0.00 | 0.00 | 50 | 1000.0 |
| 20260505000056 | 73 | 209 | 2.0 | 6.0 | 0.00 | 0.00 | 0.00 | 50 | 1000.0 |
| 20260504235559 | 73 | 220 | 10.0 | 21.0 | 0.00 | 0.00 | 0.00 | 51 | 1002.2 |
| 20260504235545 | 73 | 241 | 0.0 | 5.0 | 0.00 | 0.00 | 0.00 | 51 | 1000.0 |
| 20260504235102 | 74 | 227 | 11.0 | 26.0 | 0.00 | 0.00 | 0.00 | 50 | 1002.2 |
| 20260504235048 | 73 | 227 | 1.0 | 5.0 | 0.00 | 0.00 | 0.00 | 50 | 1000.1 |
| 20260504234624 | 74 | 212 | 10.0 | 26.0 | 0.00 | 0.00 | 0.00 | 50 | 1002.2 |
| 20260504234545 | 74 | 236 | 1.0 | 8.0 | 0.00 | 0.00 | 0.00 | 50 | 1000.0 |
| 20260504234059 | 74 | 232 | 17.0 | 26.0 | 0.00 | 0.00 | 0.00 | 49 | 1002.0 |
| 20260504234048 | 74 | 241 | 3.0 | 8.0 | 0.00 | 0.00 | 0.00 | 50 | 999.9 |
| 20260504233600 | 74 | 236 | 11.0 | 25.0 | 0.00 | 0.00 | 0.00 | 51 | 1001.9 |
| 20260504233545 | 74 | 236 | 1.0 | 4.0 | 0.00 | 0.00 | 0.00 | 51 | 999.7 |
| 20260504233100 | 74 | 219 | 10.0 | 31.0 | 0.00 | 0.00 | 0.00 | 50 | 1001.9 |
| 20260504233044 | 74 | 244 | 1.0 | 5.0 | 0.00 | 0.00 | 0.00 | 51 | 999.5 |
| 20260504232600 | 74 | 243 | 11.0 | 31.0 | 0.00 | 0.00 | 0.00 | 50 | 1001.8 |
| 20260504232543 | 74 | 230 | 1.0 | 8.0 | 0.00 | 0.00 | 0.00 | 50 | 999.6 |
| 20260504232059 | 74 | 209 | 15.0 | 31.0 | 0.00 | 0.00 | 0.00 | 50 | 1001.9 |
| 20260504232044 | 74 | 217 | 2.0 | 8.0 | 0.00 | 0.00 | 0.00 | 50 | 999.6 |
| 20260504231606 | 74 | 239 | 12.0 | 22.0 | 0.00 | 0.00 | 0.00 | 50 | 1001.9 |
| 20260504231542 | 75 | 226 | 1.0 | 5.0 | 0.00 | 0.00 | 0.00 | 50 | 999.6 |
| 20260504231059 | 75 | 243 | 11.0 | 27.0 | 0.00 | 0.00 | 0.00 | 50 | 1001.9 |
| 20260504231044 | 75 | 258 | 0.0 | 6.0 | 0.00 | 0.00 | 0.00 | 50 | 999.6 |
| 20260504230604 | 75 | 214 | 12.0 | 27.0 | 0.00 | 0.00 | 0.00 | 49 | 1001.8 |
| 20260504230543 | 75 | 250 | 1.0 | 9.0 | 0.00 | 0.00 | 0.00 | 50 | 999.4 |
| 20260504230101 | 75 | 205 | 14.0 | 26.0 | 0.00 | 0.00 | 0.00 | 50 | 1001.7 |
| 20260504230043 | 75 | 244 | 1.0 | 8.0 | 0.00 | 0.00 | 0.00 | 51 | 999.5 |
| 20260504225559 | 75 | 214 | 15.0 | 26.0 | 0.00 | 0.00 | 0.00 | 51 | 1001.8 |
| 20260504225542 | 75 | 236 | 2.0 | 8.0 | 0.00 | 0.00 | 0.00 | 51 | 999.4 |
| 20260504225059 | 75 | 193 | 11.0 | 24.0 | 0.00 | 0.00 | 0.00 | 52 | 1001.7 |
| 20260504225042 | 75 | 227 | 0.0 | 5.0 | 0.00 | 0.00 | 0.00 | 52 | 999.4 |
| 20260504224606 | 75 | 188 | 12.0 | 22.0 | 0.00 | 0.00 | 0.00 | 52 | 1001.6 |
| 20260504224541 | 75 | 253 | 1.0 | 7.0 | 0.00 | 0.00 | 0.00 | 53 | 999.4 |
| 20260504224059 | 75 | 211 | 10.0 | 20.0 | 0.00 | 0.00 | 0.00 | 52 | 1001.7 |
| 20260504224042 | 75 | 215 | 1.0 | 7.0 | 0.00 | 0.00 | 0.00 | 53 | 999.5 |
| 20260504223559 | 75 | 214 | 8.0 | 22.0 | 0.00 | 0.00 | 0.00 | 52 | 1001.7 |
| 20260504223542 | 75 | 209 | 0.0 | 5.0 | 0.00 | 0.00 | 0.00 | 53 | 999.4 |
| 20260504223057 | 75 | 207 | 11.0 | 22.0 | 0.00 | 0.00 | 0.00 | 51 | 1001.7 |
| 20260504223040 | 75 | 228 | 1.0 | 5.0 | 0.00 | 0.00 | 0.00 | 51 | 999.5 |
| 20260504222600 | 76 | 229 | 11.0 | 26.0 | 0.00 | 0.00 | 0.00 | 51 | 1001.8 |
| 20260504222539 | 76 | 247 | 2.0 | 7.0 | 0.00 | 0.00 | 0.00 | 52 | 999.6 |
| 20260504222102 | 76 | 233 | 13.0 | 26.0 | 0.00 | 0.00 | 0.00 | 52 | 1001.9 |
| 20260504222038 | 76 | 241 | 1.0 | 7.0 | 0.00 | 0.00 | 0.00 | 52 | 999.7 |
| 20260504221606 | 76 | 205 | 12.0 | 26.0 | 0.00 | 0.00 | 0.00 | 51 | 1002.0 |
| 20260504221541 | 76 | 215 | 2.0 | 7.0 | 0.00 | 0.00 | 0.00 | 52 | 999.8 |
| 20260504221102 | 75 | 197 | 11.0 | 25.0 | 0.00 | 0.00 | 0.00 | 51 | 1002.0 |
| 20260504221038 | 75 | 209 | 2.0 | 8.0 | 0.00 | 0.00 | 0.00 | 52 | 999.7 |
| 20260504220637 | 76 | 248 | 1.0 | 8.0 | 0.00 | 0.00 | 0.00 | 52 | 999.8 |
| 20260504220600 | 76 | 262 | 14.0 | 26.0 | 0.00 | 0.00 | 0.00 | 51 | 1002.0 |
| 20260504220100 | 76 | 168 | 12.0 | 30.0 | 0.00 | 0.00 | 0.00 | 51 | 1002.1 |
| 20260504220046 | 76 | 224 | 1.0 | 5.0 | 0.00 | 0.00 | 0.00 | 52 | 999.8 |
| 20260504215600 | 76 | 225 | 13.0 | 30.0 | 0.00 | 0.00 | 0.00 | 52 | 1002.0 |
| 20260504215537 | 76 | 242 | 2.0 | 8.0 | 0.00 | 0.00 | 0.00 | 52 | 999.8 |
| 20260504215057 | 76 | 216 | 15.0 | 31.0 | 0.00 | 0.00 | 0.00 | 51 | 1002.2 |
| 20260504215039 | 76 | 215 | 3.0 | 8.0 | 0.00 | 0.00 | 0.00 | 51 | 999.9 |
| 20260504214602 | 76 | 210 | 13.0 | 31.0 | 0.00 | 0.00 | 0.00 | 52 | 1002.2 |
| 20260504214537 | 76 | 207 | 2.0 | 8.0 | 0.00 | 0.00 | 0.00 | 52 | 999.9 |
| 20260504214059 | 76 | 195 | 15.0 | 23.0 | 0.00 | 0.00 | 0.00 | 52 | 1002.2 |
| 20260504214035 | 76 | 250 | 3.0 | 8.0 | 0.00 | 0.00 | 0.00 | 52 | 999.8 |
| 20260504213559 | 76 | 223 | 10.0 | 27.0 | 0.00 | 0.00 | 0.00 | 52 | 1002.3 |
| 20260504213535 | 76 | 217 | 1.0 | 5.0 | 0.00 | 0.00 | 0.00 | 53 | 999.9 |
| 20260504213105 | 75 | 209 | 11.0 | 30.0 | 0.00 | 0.00 | 0.00 | 53 | 1002.3 |
| 20260504213045 | 75 | 236 | 1.0 | 9.0 | 0.00 | 0.00 | 0.00 | 54 | 1000.0 |
| 20260504212559 | 74 | 259 | 14.0 | 30.0 | 0.00 | 0.00 | 0.00 | 54 | 1002.2 |
| 20260504212535 | 74 | 229 | 2.0 | 7.0 | 0.00 | 0.00 | 0.00 | 54 | 999.9 |
| 20260504212150 | 74 | 207 | 13.0 | 23.0 | 0.00 | 0.00 | 0.00 | 54 | 1002.4 |
| 20260504212035 | 75 | 237 | 2.0 | 7.0 | 0.00 | 0.00 | 0.00 | 55 | 1000.0 |
| 20260504211604 | 75 | 216 | 11.0 | 19.0 | 0.00 | 0.00 | 0.00 | 53 | 1002.4 |
| 20260504211540 | 75 | 200 | 1.0 | 7.0 | 0.00 | 0.00 | 0.00 | 53 | 1000.0 |
| 20260504211059 | 75 | 208 | 11.0 | 20.0 | 0.00 | 0.00 | 0.00 | 52 | 1002.4 |
| 20260504211034 | 75 | 237 | 0.0 | 7.0 | 0.00 | 0.00 | 0.00 | 52 | 1000.1 |
| 20260504210558 | 75 | 207 | 10.0 | 25.0 | 0.00 | 0.00 | 0.00 | 53 | 1002.5 |
| 20260504210533 | 75 | 233 | 1.0 | 6.0 | 0.00 | 0.00 | 0.00 | 52 | 1000.1 |
| 20260504210104 | 75 | 250 | 12.0 | 25.0 | 0.00 | 0.00 | 0.00 | 52 | 1002.6 |
| 20260504210033 | 75 | 245 | 1.0 | 7.0 | 0.00 | 0.00 | 0.00 | 53 | 1000.2 |
| 20260504205604 | 75 | 178 | 11.0 | 22.0 | 0.00 | 0.00 | 0.00 | 53 | 1002.6 |
| 20260504205531 | 75 | 250 | 1.0 | 6.0 | 0.00 | 0.00 | 0.00 | 54 | 1000.2 |
| 20260504205103 | 75 | 232 | 10.0 | 22.0 | 0.00 | 0.00 | 0.00 | 52 | 1002.5 |
| 20260504205031 | 75 | 209 | 1.0 | 7.0 | 0.00 | 0.00 | 0.00 | 53 | 1000.3 |
| 20260504204646 | 76 | 240 | 2.0 | 8.0 | 0.00 | 0.00 | 0.00 | 52 | 1000.4 |
| 20260504204637 | 76 | 255 | 13.0 | 26.0 | 0.00 | 0.00 | 0.00 | 51 | 1002.7 |
| 20260504204059 | 76 | 180 | 11.0 | 26.0 | 0.00 | 0.00 | 0.00 | 53 | 1002.6 |
| 20260504204029 | 76 | 183 | 1.0 | 8.0 | 0.00 | 0.00 | 0.00 | 53 | 1000.3 |
| 20260504203559 | 76 | 209 | 13.0 | 25.0 | 0.00 | 0.00 | 0.00 | 53 | 1002.7 |
| 20260504203527 | 76 | 213 | 2.0 | 6.0 | 0.00 | 0.00 | 0.00 | 54 | 1000.5 |
| 20260504203059 | 75 | 188 | 11.0 | 25.0 | 0.00 | 0.00 | 0.00 | 53 | 1002.8 |
| 20260504203026 | 75 | 214 | 2.0 | 7.0 | 0.00 | 0.00 | 0.00 | 53 | 1000.6 |
| 20260504202559 | 75 | 221 | 12.0 | 27.0 | 0.00 | 0.00 | 0.00 | 53 | 1003.0 |
| 20260504202534 | 75 | 217 | 2.0 | 7.0 | 0.00 | 0.00 | 0.00 | 54 | 1000.9 |
| 20260504202059 | 75 | 219 | 14.0 | 27.0 | 0.00 | 0.00 | 0.00 | 53 | 1003.1 |
| 20260504202024 | 75 | 216 | 3.0 | 7.0 | 0.00 | 0.00 | 0.00 | 53 | 1000.8 |
| 20260504201559 | 75 | 174 | 10.0 | 27.0 | 0.00 | 0.00 | 0.00 | 54 | 1003.1 |
| 20260504201523 | 75 | 217 | 1.0 | 5.0 | 0.00 | 0.00 | 0.00 | 54 | 1000.8 |
| 20260504201059 | 75 | 196 | 11.0 | 27.0 | 0.00 | 0.00 | 0.00 | 54 | 1003.3 |
| 20260504201023 | 75 | 240 | 1.0 | 8.0 | 0.00 | 0.00 | 0.00 | 54 | 1001.0 |
| 20260504200559 | 74 | 211 | 13.0 | 23.0 | 0.00 | 0.00 | 0.00 | 54 | 1003.2 |
| 20260504200522 | 74 | 192 | 2.0 | 8.0 | 0.00 | 0.00 | 0.00 | 54 | 1001.1 |
| 20260504200021 | 73 | 235 | 2.0 | 6.0 | 0.00 | 0.00 | 0.00 | 53 | 1001.2 |
| 20260504195559 | 75 | 248 | 11.0 | 28.0 | 0.00 | 0.00 | 0.00 | 50 | 1003.5 |
| 20260504195520 | 75 | 237 | 1.0 | 9.0 | 0.00 | 0.00 | 0.00 | 52 | 1001.3 |
| 20260504195101 | 75 | 205 | 15.0 | 27.0 | 0.00 | 0.00 | 0.00 | 51 | 1003.6 |
| 20260504195020 | 75 | 211 | 3.0 | 9.0 | 0.00 | 0.00 | 0.00 | 51 | 1001.3 |
| 20260504194558 | 75 | 205 | 10.0 | 21.0 | 0.00 | 0.00 | 0.00 | 51 | 1003.5 |
| 20260504194519 | 75 | 223 | 1.0 | 5.0 | 0.00 | 0.00 | 0.00 | 51 | 1001.4 |
| 20260504194101 | 75 | 215 | 9.0 | 21.0 | 0.00 | 0.00 | 0.00 | 51 | 1003.6 |
| 20260504194019 | 75 | 236 | 0.0 | 7.0 | 0.00 | 0.00 | 0.00 | 52 | 1001.5 |
| 20260504193601 | 75 | 207 | 12.0 | 24.0 | 0.00 | 0.00 | 0.00 | 49 | 1003.8 |
| 20260504193518 | 75 | 205 | 2.0 | 9.0 | 0.00 | 0.00 | 0.00 | 49 | 1001.7 |
| 20260504193100 | 75 | 208 | 12.0 | 24.0 | 0.00 | 0.00 | 0.00 | 48 | 1003.9 |
| 20260504193017 | 75 | 232 | 1.0 | 9.0 | 0.00 | 0.00 | 0.00 | 48 | 1001.7 |
| 20260504192559 | 75 | 209 | 12.0 | 29.0 | 0.00 | 0.00 | 0.00 | 49 | 1003.9 |
| 20260504192515 | 75 | 227 | 1.0 | 9.0 | 0.00 | 0.00 | 0.00 | 50 | 1001.8 |
| 20260504192058 | 74 | 208 | 12.0 | 29.0 | 0.00 | 0.00 | 0.00 | 48 | 1004.0 |
| 20260504192015 | 74 | 255 | 2.0 | 8.0 | 0.00 | 0.00 | 0.00 | 49 | 1001.9 |
| 20260504191559 | 74 | 192 | 10.0 | 23.0 | 0.00 | 0.00 | 0.00 | 46 | 1004.0 |
| 20260504191514 | 75 | 232 | 2.0 | 8.0 | 0.00 | 0.00 | 0.00 | 49 | 1002.0 |
| 20260504191100 | 74 | 186 | 11.0 | 23.0 | 0.00 | 0.00 | 0.00 | 47 | 1004.1 |
| 20260504191012 | 74 | 204 | 2.0 | 7.0 | 0.00 | 0.00 | 0.00 | 49 | 1002.1 |
| 20260504190600 | 74 | 218 | 12.0 | 30.0 | 0.00 | 0.00 | 0.00 | 46 | 1004.1 |
| 20260504190514 | 74 | 183 | 3.0 | 7.0 | 0.00 | 0.00 | 0.00 | 48 | 1002.1 |
| 20260504190012 | 74 | 176 | 3.0 | 7.0 | 0.00 | 0.00 | 0.00 | 48 | 1002.2 |
| 20260504185558 | 74 | 195 | 11.0 | 25.0 | 0.00 | 0.00 | 0.00 | 47 | 1004.4 |
| 20260504185510 | 74 | 223 | 2.0 | 7.0 | 0.00 | 0.00 | 0.00 | 49 | 1002.2 |
| 20260504185100 | 74 | 207 | 12.0 | 24.0 | 0.00 | 0.00 | 0.00 | 49 | 1004.3 |
| 20260504185012 | 74 | 248 | 1.0 | 9.0 | 0.00 | 0.00 | 0.00 | 49 | 1002.2 |
| 20260504184605 | 73 | 205 | 13.0 | 24.0 | 0.00 | 0.00 | 0.00 | 49 | 1004.4 |
| 20260504184509 | 73 | 224 | 2.0 | 10.0 | 0.00 | 0.00 | 0.00 | 50 | 1002.3 |
| 20260504184100 | 74 | 211 | 11.0 | 22.0 | 0.00 | 0.00 | 0.00 | 48 | 1004.4 |
| 20260504184013 | 74 | 194 | 1.0 | 10.0 | 0.00 | 0.00 | 0.00 | 48 | 1002.3 |
| 20260504183600 | 73 | 223 | 11.0 | 22.0 | 0.00 | 0.00 | 0.00 | 49 | 1004.6 |
| 20260504183508 | 73 | 178 | 2.0 | 11.0 | 0.00 | 0.00 | 0.00 | 49 | 1002.4 |
| 20260504183101 | 73 | 190 | 12.0 | 21.0 | 0.00 | 0.00 | 0.00 | 51 | 1004.7 |
| 20260504183006 | 73 | 232 | 2.0 | 11.0 | 0.00 | 0.00 | 0.00 | 51 | 1002.6 |
| 20260504182559 | 73 | 182 | 12.0 | 25.0 | 0.00 | 0.00 | 0.00 | 50 | 1004.8 |
| 20260504182505 | 73 | 200 | 2.0 | 11.0 | 0.00 | 0.00 | 0.00 | 49 | 1002.6 |
| 20260504182059 | 73 | 210 | 12.0 | 25.0 | 0.00 | 0.00 | 0.00 | 47 | 1004.9 |
| 20260504182003 | 73 | 232 | 3.0 | 11.0 | 0.00 | 0.00 | 0.00 | 49 | 1002.6 |
| 20260504181559 | 73 | 153 | 12.0 | 21.0 | 0.00 | 0.00 | 0.00 | 50 | 1005.0 |
| 20260504181503 | 73 | 157 | 3.0 | 10.0 | 0.00 | 0.00 | 0.00 | 51 | 1002.7 |
| 20260504181103 | 73 | 165 | 10.0 | 20.0 | 0.00 | 0.00 | 0.00 | 53 | 1005.0 |
| 20260504181002 | 73 | 196 | 1.0 | 8.0 | 0.00 | 0.00 | 0.00 | 54 | 1002.7 |
| 20260504180601 | 73 | 187 | 10.0 | 23.0 | 0.00 | 0.00 | 0.00 | 50 | 1005.0 |
| 20260504180501 | 73 | 204 | 2.0 | 9.0 | 0.00 | 0.00 | 0.00 | 52 | 1002.7 |
| 20260504180140 | 72 | 215 | 2.0 | 9.0 | 0.00 | 0.00 | 0.00 | 52 | 1002.8 |
| 20260504180101 | 72 | 188 | 10.0 | 23.0 | 0.00 | 0.00 | 0.00 | 51 | 1005.2 |
| 20260504175604 | 73 | 199 | 8.0 | 18.0 | 0.00 | 0.00 | 0.00 | 54 | 1005.3 |
| 20260504175559 | 73 | 228 | 1.0 | 6.0 | 0.00 | 0.00 | 0.00 | 54 | 1002.9 |
| 20260504175058 | 72 | 200 | 11.0 | 22.0 | 0.00 | 0.00 | 0.00 | 53 | 1005.4 |
| 20260504174559 | 72 | 197 | 11.0 | 22.0 | 0.00 | 0.00 | 0.00 | 52 | 1005.4 |
| 20260504174557 | 72 | 186 | 1.0 | 7.0 | 0.00 | 0.00 | 0.00 | 53 | 1003.1 |
| 20260504174100 | 72 | 223 | 10.0 | 23.0 | 0.00 | 0.00 | 0.00 | 53 | 1005.4 |
| 20260504174056 | 72 | 229 | 1.0 | 8.0 | 0.00 | 0.00 | 0.00 | 53 | 1003.2 |
| 20260504173559 | 72 | 212 | 10.0 | 23.0 | 0.00 | 0.00 | 0.00 | 52 | 1005.4 |
| 20260504173555 | 72 | 208 | 2.0 | 8.0 | 0.00 | 0.00 | 0.00 | 53 | 1003.2 |
| 20260504173058 | 72 | 236 | 11.0 | 23.0 | 0.00 | 0.00 | 0.00 | 54 | 1005.5 |
| 20260504173053 | 72 | 186 | 1.0 | 9.0 | 0.00 | 0.00 | 0.00 | 55 | 1003.3 |
| 20260504172559 | 72 | 192 | 9.0 | 23.0 | 0.00 | 0.00 | 0.00 | 54 | 1005.6 |
| 20260504172552 | 72 | 194 | 1.0 | 10.0 | 0.00 | 0.00 | 0.00 | 55 | 1003.3 |
| 20260504172059 | 72 | 173 | 8.0 | 20.0 | 0.00 | 0.00 | 0.00 | 56 | 1005.6 |
| 20260504172056 | 72 | 273 | 0.0 | 9.0 | 0.00 | 0.00 | 0.00 | 57 | 1003.5 |
| 20260504171602 | 71 | 206 | 8.0 | 20.0 | 0.00 | 0.00 | 0.00 | 56 | 1005.7 |
| 20260504171552 | 71 | 175 | 1.0 | 4.0 | 0.00 | 0.00 | 0.00 | 53 | 1003.6 |
| 20260504171100 | 71 | 219 | 8.0 | 19.0 | 0.00 | 0.00 | 0.00 | 54 | 1005.6 |
| 20260504171052 | 71 | 247 | 1.0 | 4.0 | 0.00 | 0.00 | 0.00 | 54 | 1003.6 |
| 20260504170600 | 71 | 208 | 9.0 | 16.0 | 0.00 | 0.00 | 0.00 | 56 | 1005.7 |
| 20260504170549 | 71 | 235 | 1.0 | 6.0 | 0.00 | 0.00 | 0.00 | 57 | 1003.7 |
| 20260504160134 | 68 | 226 | 1.0 | 6.0 | 0.00 | 0.00 | 0.00 | 59 | 1004.3 |
| 20260504151059 | 66 | 204 | 8.0 | 18.0 | 0.00 | 0.00 | 0.00 | 60 | 1006.7 |
| 20260504151019 | 66 | 224 | 0.0 | 4.0 | 0.00 | 0.00 | 0.00 | 60 | 1004.6 |
| 20260504150627 | 66 | 208 | 1.0 | 5.0 | 0.00 | 0.00 | 0.00 | 62 | 1004.6 |
| 20260504150602 | 66 | 184 | 8.0 | 15.0 | 0.00 | 0.00 | 0.00 | 61 | 1006.5 |
| 20260504150106 | 65 | 180 | 6.0 | 17.0 | 0.00 | 0.00 | 0.00 | 60 | 1006.6 |